Date,TemperatureHighF,TemperatureAvgF,TemperatureLowF,DewpointHighF,DewpointAvgF,DewpointLowF,HumidityHigh,HumidityAvg,HumidityLow,PressureMaxIn,PressureMinIn,WindSpeedMaxMPH,WindSpeedAvgMPH,GustSpeedMaxMPH,PrecipitationSumIn
2013-1-1,32,26,24,25,23,21,93,87,73,30.67,30.50,1,0,2,0.00
2013-1-2,29,25,23,24,22,19,92,86,77,30.67,30.56,1,0,2,0.00
2013-1-3,30,20,9,21,16,7,93,85,66,30.56,30.41,1,0,2,0.00
2013-1-4,27,21,11,23,18,9,93,89,82,30.54,30.48,0,0,1,0.00
2013-1-5,31,27,24,26,24,22,95,90,80,30.53,30.24,4,0,6,0.00
2013-1-6,31,29,27,27,26,25,95,90,85,30.24,30.14,2,0,6,0.00
2013-1-7,33,29,27,30,28,26,96,94,89,30.14,29.89,0,0,0,0.00
2013-1-8,31,28,24,31,27,23,97,95,90,30.20,29.88,0,0,0,0.00
2013-1-9,42,35,31,39,34,30,97,95,87,29.88,29.60,3,0,7,0.09
2013-1-10,35,31,27,32,29,24,97,91,76,29.97,29.77,4,0,9,0.02
2013-1-11,32,23,14,24,19,12,94,86,66,30.31,29.98,2,0,5,0.00
2013-1-12,28,15,8,18,11,5,92,84,59,30.46,30.31,3,0,5,0.00
2013-1-13,24,12,0,14,8,-3,91,84,63,30.60,30.45,1,0,2,0.00
2013-1-14,22,19,14,19,16,11,92,89,82,30.58,30.45,0,0,1,0.00
2013-1-15,28,24,20,24,21,18,92,88,82,30.69,30.57,2,0,5,0.00
2013-1-16,32,28,25,27,24,22,92,87,78,30.69,30.62,0,0,1,0.01
2013-1-17,31,25,18,26,23,16,94,89,81,30.64,30.44,1,0,2,0.00
2013-1-18,34,20,11,26,17,10,94,88,69,30.49,30.34,1,0,2,0.00
2013-1-19,31,16,6,23,13,4,93,87,72,30.61,30.49,1,0,2,0.00
2013-1-20,36,17,7,26,14,4,94,87,68,30.68,30.55,1,0,2,0.01
2013-1-21,33,18,11,26,15,9,93,88,72,30.56,30.38,1,0,2,0.00
2013-1-22,24,18,11,20,15,9,93,89,80,30.46,30.30,0,0,2,0.00
2013-1-23,29,24,15,27,21,13,95,90,79,30.32,30.02,1,0,2,0.00
2013-1-24,32,29,26,30,26,24,95,89,81,30.35,30.09,2,0,4,0.00
2013-1-25,33,31,28,32,29,26,97,94,91,30.24,29.98,1,0,1,0.00
2013-1-26,39,34,32,36,32,30,97,93,83,29.98,29.91,3,0,9,0.22
2013-1-27,35,31,28,31,28,26,95,88,77,30.02,29.95,3,1,6,0.03
2013-1-28,37,30,27,31,28,26,95,90,78,29.99,29.88,1,0,3,0.03
2013-1-29,39,30,24,31,28,23,95,89,69,30.22,29.92,1,0,2,0.10
2013-1-30,39,32,26,34,30,25,96,92,83,30.28,30.16,2,0,4,0.11
2013-1-31,39,34,30,35,32,29,97,94,86,30.32,30.21,2,0,5,0.13
2013-2-1,40,34,31,34,32,30,97,90,81,30.51,30.24,1,0,5,0.02
2013-2-2,42,33,28,34,30,26,96,89,73,30.56,30.31,1,0,2,0.00
2013-2-3,37,33,30,33,30,28,96,91,84,30.31,30.13,1,0,3,0.00
2013-2-4,39,34,32,34,32,30,96,90,80,30.15,30.04,2,0,6,0.00
2013-2-5,42,36,32,36,33,31,96,88,78,30.04,29.82,3,0,8,0.00
2013-2-6,44,37,30,35,32,28,94,84,66,30.08,29.90,4,1,9,0.00
2013-2-7,39,34,31,36,32,30,97,94,87,30.08,29.97,0,0,1,0.14
2013-2-8,43,34,25,35,30,24,97,87,62,30.17,30.07,2,0,5,0.01
2013-2-9,43,29,24,31,25,22,96,88,62,30.28,30.07,1,0,3,0.00
2013-2-10,42,30,23,31,26,22,94,86,63,30.37,30.25,2,0,4,0.01
2013-2-11,36,32,29,29,28,27,92,85,71,30.29,30.25,0,0,2,0.00
2013-2-12,38,34,31,32,30,28,91,86,77,30.33,30.15,3,1,7,0.00
2013-2-13,50,35,26,36,28,24,96,79,38,30.39,30.14,3,0,9,0.00
2013-2-14,49,34,23,30,26,21,95,75,41,30.61,30.39,2,0,3,0.00
2013-2-15,50,33,24,33,27,22,95,81,51,30.63,30.36,2,0,5,0.00
2013-2-16,37,30,25,34,29,24,96,93,86,30.36,29.96,4,0,7,0.13
2013-2-17,45,32,23,38,28,22,96,89,46,30.18,29.98,3,0,7,0.07
2013-2-18,42,30,19,30,25,17,95,82,54,30.19,29.86,1,0,3,0.00
2013-2-19,40,33,29,35,31,27,96,91,78,29.90,29.76,1,0,3,0.05
2013-2-20,44,32,23,31,27,21,96,82,51,30.04,29.90,2,0,3,0.01
2013-2-21,35,29,21,31,26,19,95,91,86,30.08,30.00,1,0,2,0.02
2013-2-22,35,33,31,33,31,29,96,93,90,30.02,29.59,3,1,7,0.18
2013-2-23,45,34,27,34,30,26,96,85,53,30.27,29.66,2,0,3,0.24
2013-2-24,36,31,24,30,27,23,95,87,74,30.36,30.12,4,1,9,0.01
2013-2-25,40,34,29,36,32,28,96,92,83,30.12,29.91,1,0,4,0.13
2013-2-26,38,32,26,30,28,25,96,87,71,30.34,30.11,3,0,8,0.01
2013-2-27,45,33,25,32,28,24,95,83,55,30.33,30.27,2,0,4,0.00
2013-2-28,40,34,31,36,32,30,96,93,82,30.40,30.31,1,0,3,0.20
2013-3-1,46,38,34,43,37,33,97,95,87,30.41,30.29,1,0,3,0.07
2013-3-2,50,41,34,43,38,33,97,89,73,30.30,29.81,3,0,7,0.00
2013-3-3,45,37,28,36,26,18,92,65,36,30.25,29.81,6,1,14,0.01
2013-3-4,48,32,22,26,22,16,95,70,29,30.37,30.19,3,0,5,0.00
2013-3-5,42,31,22,29,24,20,91,76,46,30.20,29.93,2,0,3,0.00
2013-3-6,38,34,30,35,31,27,96,91,81,29.93,29.69,1,0,1,0.09
2013-3-7,43,36,33,38,34,32,96,92,81,30.11,29.85,3,1,9,0.15
2013-3-8,49,39,31,36,33,29,96,81,52,30.16,30.03,2,0,4,0.00
2013-3-9,52,36,26,33,29,25,96,78,38,30.44,30.16,3,0,6,0.00
2013-3-10,47,35,24,34,29,23,95,80,55,30.47,30.26,4,1,13,0.00
2013-3-11,51,38,27,34,25,17,95,67,27,30.36,30.24,5,1,10,0.00
2013-3-12,40,34,31,38,32,27,96,90,76,30.27,30.07,0,0,2,0.09
2013-3-13,48,42,38,42,40,37,97,91,78,30.19,30.08,3,0,6,0.07
2013-3-14,48,42,38,45,40,37,97,94,88,30.15,29.96,1,0,2,0.03
2013-3-15,59,42,31,41,36,30,97,82,43,30.18,29.99,3,0,5,0.02
2013-3-16,50,39,33,40,35,32,96,87,54,30.06,29.62,5,1,9,0.11
2013-3-17,50,38,27,35,24,8,96,64,21,29.99,29.62,6,1,18,0.03
2013-3-18,40,32,26,34,27,23,94,80,63,30.23,29.97,4,1,10,0.01
2013-3-19,50,34,21,28,23,16,94,69,29,30.37,29.92,3,0,6,0.00
2013-3-20,45,36,32,43,34,26,96,92,70,29.92,29.49,1,0,2,0.89
2013-3-21,45,36,25,32,25,16,96,68,35,30.06,29.70,5,1,9,0.01
2013-3-22,45,31,22,23,17,6,91,63,21,30.32,30.06,5,1,11,0.00
2013-3-23,44,29,17,24,18,14,90,67,34,30.43,30.31,3,0,5,0.00
2013-3-24,48,32,19,25,21,15,93,68,27,30.45,30.24,4,0,7,0.00
2013-3-25,53,34,18,24,19,13,93,64,20,30.29,30.05,2,0,6,0.00
2013-3-26,60,38,21,30,23,16,93,63,21,30.11,29.95,2,0,4,0.00
2013-3-27,63,42,26,35,28,23,92,65,24,30.06,29.94,3,0,5,0.00
2013-3-28,63,46,30,42,35,28,93,70,37,30.10,29.99,4,0,9,0.02
2013-3-29,61,44,33,43,36,32,95,77,44,30.24,30.10,4,1,8,0.00
2013-3-30,68,44,29,40,33,27,96,71,26,30.34,30.12,3,0,8,0.00
2013-3-31,73,47,28,38,32,27,96,65,23,30.18,29.92,2,0,5,0.00
2013-4-1,76,49,29,40,34,28,96,64,22,30.02,29.86,3,0,6,0.00
2013-4-2,65,47,31,46,39,29,94,75,46,30.07,29.95,5,1,12,0.00
2013-4-3,64,47,32,44,38,31,96,74,43,30.12,29.98,4,1,8,0.00
2013-4-4,60,46,35,47,41,33,96,83,49,30.02,29.69,3,0,4,0.27
2013-4-5,58,48,41,48,44,40,96,87,60,29.81,29.74,3,1,6,0.13
2013-4-6,58,48,41,47,39,30,95,74,39,29.81,29.72,5,1,11,0.24
2013-4-7,44,39,35,41,37,33,96,91,84,29.78,29.55,1,0,3,0.33
2013-4-8,51,42,37,38,34,30,96,75,50,30.25,29.76,3,0,7,0.04
2013-4-9,52,44,36,40,35,29,90,72,45,30.35,30.19,2,0,3,0.00
2013-4-10,50,43,37,46,40,36,95,87,66,30.20,29.79,3,0,7,0.18
2013-4-11,56,44,31,41,34,26,96,71,32,30.12,30.01,4,1,8,0.01
2013-4-12,49,37,27,40,32,25,94,83,55,30.14,29.57,3,0,7,0.30
2013-4-13,46,38,32,37,34,30,95,89,63,29.84,29.48,4,0,7,0.15
2013-4-14,48,37,32,37,33,31,96,86,56,29.98,29.84,2,0,4,0.06
2013-4-15,46,37,27,31,22,15,94,57,35,30.23,29.96,3,1,9,0.03
2013-4-16,48,36,25,25,19,13,86,57,24,30.43,30.23,6,1,11,0.00
2013-4-17,57,38,21,29,22,13,93,59,21,30.48,30.27,5,1,10,0.00
2013-4-18,60,45,28,38,30,26,90,60,31,30.36,30.11,3,1,10,0.00
2013-4-19,58,47,41,49,43,38,95,87,63,30.11,29.85,3,0,6,0.32
2013-4-20,57,46,39,48,41,36,96,82,52,30.04,29.92,4,1,10,0.09
2013-4-21,53,45,36,38,26,13,87,52,20,30.30,30.04,4,1,7,0.00
2013-4-22,58,41,25,28,22,13,92,56,17,30.51,30.30,5,1,9,0.00
2013-4-23,58,40,27,32,27,23,87,64,29,30.38,30.20,4,0,6,0.00
2013-4-24,66,46,27,37,30,25,94,60,23,30.33,29.95,4,1,9,0.00
2013-4-25,72,51,30,40,32,27,93,58,20,30.02,29.89,5,1,9,0.00
2013-4-26,77,55,35,44,38,29,92,59,22,30.12,30.00,3,1,8,0.00
2013-4-27,65,53,39,42,38,32,90,60,33,30.02,29.82,5,1,12,0.00
2013-4-28,62,45,32,41,34,29,90,69,41,30.03,29.92,5,1,9,0.00
2013-4-29,53,46,33,29,21,14,70,39,23,29.93,29.63,7,3,15,0.00
2013-4-30,54,40,27,28,23,12,87,57,20,30.37,29.92,5,1,9,0.00
2013-5-1,63,43,24,29,24,16,90,54,17,30.61,30.37,3,1,6,0.00
2013-5-2,70,50,27,42,30,24,90,54,21,30.64,30.25,3,0,6,0.00
2013-5-3,73,58,44,43,38,31,83,53,22,30.28,30.10,3,1,9,0.00
2013-5-4,75,54,38,41,36,27,89,57,18,30.31,30.06,3,1,6,0.00
2013-5-5,83,53,34,40,33,23,91,58,11,30.11,29.82,3,0,5,0.00
2013-5-6,88,60,37,46,38,32,92,54,16,29.93,29.64,2,0,4,0.00
2013-5-7,89,80,58,46,41,32,60,28,14,29.82,29.72,3,1,7,0.00
2013-5-8,88,74,52,49,44,34,78,40,16,29.94,29.82,2,0,7,0.00
2013-5-9,89,65,42,46,39,22,92,50,9,30.05,29.89,3,0,8,0.00
2013-5-10,90,65,41,50,42,35,90,53,16,30.14,29.97,3,0,5,0.00
2013-5-11,89,66,48,54,47,36,87,56,17,30.08,29.90,5,0,10,0.00
2013-5-12,74,54,49,54,47,-100,88,80,61,29.97,29.87,6,-8,6,0.00
2013-5-13,66,55,46,52,47,43,91,76,52,29.94,29.78,5,1,11,0.10
2013-5-14,63,49,38,44,38,32,95,69,36,30.15,29.94,3,1,7,0.03
2013-5-15,68,38,35,43,35,34,94,91,39,30.12,29.88,0,0,0,0.00
2013-5-17,62,62,61,52,51,51,70,69,68,31.96,31.95,0,0,0,0.00
2013-5-18,69,67,63,60,55,52,77,65,58,32.10,32.01,0,0,0,0.00
2013-5-19,62,62,62,53,53,53,74,74,74,0.00,40.00,0,0,0,0.00
2013-5-25,60,59,56,49,47,44,77,66,57,31.94,31.89,3,1,6,0.00
2013-5-26,55,52,51,51,50,49,94,92,87,31.88,31.87,1,1,2,0.03
2013-5-27,59,59,59,57,56,56,93,92,92,31.86,31.85,0,0,2,0.11
2013-5-28,58,54,51,50,49,48,92,83,71,31.99,31.92,2,0,5,0.10
2013-5-29,63,54,49,53,49,46,96,85,64,32.15,31.83,4,1,7,0.29
2013-5-30,63,54,48,53,48,45,91,80,60,32.43,32.15,4,1,8,0.04
2013-5-31,66,55,46,50,47,42,95,75,44,32.49,32.44,2,0,3,0.00
2013-6-1,74,59,49,52,49,46,91,72,42,32.43,32.19,3,0,6,0.00
2013-6-2,67,58,52,56,52,48,94,80,57,32.24,32.19,2,0,5,0.02
2013-6-3,72,59,52,54,51,49,91,77,48,32.27,32.19,3,0,5,0.00
2013-6-4,77,63,47,55,51,45,95,69,41,32.27,32.14,2,1,6,0.00
2013-6-6,75,65,57,57,53,50,83,69,48,32.15,32.10,1,0,2,0.00
2013-6-7,62,56,54,52,49,47,87,79,62,32.20,32.15,4,1,9,0.00
2013-6-8,64,59,58,52,50,49,75,73,66,32.32,32.18,1,0,3,0.02
2013-6-9,68,58,52,52,49,46,90,74,48,32.20,32.08,2,0,4,0.00
2013-6-10,59,52,48,50,47,45,91,81,70,32.12,32.01,1,0,2,0.00
2013-6-11,64,58,53,48,47,46,81,68,54,32.20,32.03,3,1,4,0.00
2013-6-12,66,56,51,51,48,44,88,76,48,32.24,32.20,2,0,5,0.00
2013-6-13,62,55,51,52,49,48,90,81,68,32.31,32.24,1,0,2,0.00
2013-6-14,65,60,52,52,50,48,88,69,56,32.30,32.14,1,0,3,0.00
2013-6-15,73,58,48,57,50,46,93,78,50,32.13,31.98,1,0,4,0.00
2013-6-18,70,69,69,49,48,46,48,46,44,31.95,31.95,3,2,3,0.00
2013-6-25,62,58,56,59,56,55,96,94,92,31.91,31.81,1,0,2,0.14
2013-6-26,57,57,56,56,55,55,96,96,95,31.92,31.90,0,0,0,0.01
2013-6-27,64,63,62,62,61,61,96,94,93,32.25,32.25,0,0,1,0.05
2013-6-28,83,71,60,68,63,59,96,78,54,32.25,32.07,3,0,4,0.00
2013-6-29,86,72,62,65,61,58,91,70,44,32.11,31.98,2,0,3,0.00
2013-6-30,91,74,58,69,62,56,92,69,44,32.02,31.82,2,0,3,0.00
2013-7-4,68,65,60,57,56,53,78,71,65,32.16,32.08,2,0,3,0.00
2013-7-5,72,66,57,57,55,52,84,67,55,32.09,31.99,1,0,3,0.00
2013-7-6,78,65,56,59,55,53,91,74,47,32.04,31.90,2,0,4,0.00
2013-7-7,74,63,56,61,57,53,93,81,63,32.00,31.91,2,0,4,0.00
2013-7-8,76,63,56,63,56,52,88,79,57,32.17,32.01,2,0,4,0.00
2013-7-9,84,70,56,62,58,53,94,70,43,32.17,32.01,2,0,3,0.00
2013-7-10,70,62,55,58,54,49,89,76,58,32.11,31.99,2,0,3,0.00
2013-7-11,62,57,51,50,49,47,88,75,64,32.10,32.06,0,0,2,0.00
2013-7-12,59,54,52,49,48,48,86,80,70,32.08,32.07,0,0,2,0.00
2013-7-15,74,73,73,53,53,53,50,50,49,32.01,32.01,1,1,3,0.00
2013-8-11,68,64,62,59,57,56,81,78,72,31.63,31.57,1,0,2,0.00
2013-9-4,63,63,63,60,60,60,91,91,91,0.00,40.00,0,0,0,0.00
2013-9-5,63,63,63,60,60,60,91,91,91,0.00,40.00,0,0,0,0.00
2013-9-7,60,60,60,59,59,58,96,96,95,32.16,32.16,0,0,0,1.38
2013-9-9,64,63,62,60,59,59,89,87,86,0.00,40.00,0,0,1,0.00
2013-9-10,64,63,62,60,59,59,89,87,86,32.02,32.02,0,0,1,0.00
2013-9-12,64,63,63,60,60,60,90,89,89,31.97,31.96,1,1,3,0.00
2013-9-13,65,65,64,61,61,60,88,87,86,31.97,31.91,1,0,2,0.00
2013-9-14,67,66,64,62,61,60,87,84,82,31.86,31.78,1,0,1,0.00
2013-9-15,65,62,60,61,60,58,97,93,87,31.83,31.78,2,0,4,0.01
2013-9-16,70,64,58,64,60,57,97,88,73,31.97,31.94,1,0,3,0.00
2013-9-17,60,59,58,55,54,54,86,85,83,31.95,31.94,0,0,0,0.00
2013-9-18,68,62,55,57,54,52,90,76,65,32.14,32.12,0,0,1,0.00
2013-9-20,58,58,57,56,56,56,95,94,94,31.70,31.69,0,0,0,0.00
2013-9-21,62,58,56,56,54,54,97,87,75,31.76,31.74,0,0,1,0.08
2013-9-22,58,56,54,57,54,53,97,94,89,31.82,31.60,1,0,4,0.81
2013-9-23,59,55,53,57,54,51,97,95,90,32.02,31.82,1,0,3,0.36
2013-9-24,52,52,51,50,50,50,95,95,94,31.95,31.94,0,0,0,0.11
2013-9-25,50,50,49,48,47,47,93,92,91,32.11,32.10,0,0,0,0.02
2013-9-26,52,52,51,50,49,49,92,91,90,32.23,32.23,0,0,0,0.00
2013-9-27,55,55,54,53,53,52,93,93,93,31.99,31.94,0,0,2,0.04
2013-9-28,58,55,51,57,54,50,97,97,97,31.60,31.53,1,0,4,2.47
2013-9-29,51,51,50,50,50,48,97,96,93,31.58,31.44,1,1,3,0.83
2013-9-30,55,50,48,54,49,46,97,95,89,32.02,31.50,2,0,4,0.79
2013-10-1,54,53,50,51,50,48,94,90,84,32.19,32.15,1,0,2,0.34
2013-10-2,53,50,48,51,49,47,97,94,88,32.24,32.17,1,0,2,0.28
2013-10-4,50,50,49,48,48,47,93,92,90,32.50,32.50,0,0,0,0.00
2013-10-8,58,57,56,48,47,47,71,70,69,32.22,32.22,2,2,3,0.00